Tracking 35274 objects as of 12-Sep-2026
HD Live streaming from Space Station
objects crossing your sky now

COSMOS 1648 DEB


COSMOS 1648 DEB is no longer on orbit


NORAD ID: 15676
Int'l Code: 1985-032G
Launch date: April 25, 1985
Source: Commonwealth of Independent States (former USSR) (CIS)
Launch site: PLESETSK MISSILE AND SPACE COMPLEX (PKMTR)
Decay date: 1985-05-09

Note: This is SATELLITE DEBRIS
Your satellite tracking list
Your tracking list is empty




NASA's NSSDC Master Catalog

Two Line Element Set (TLE):
1 15676U 85032  G 85128.78381010  .10235955 +95893-5 +88514-3 0  9993
2 15676 082.3291 006.7840 0015202 081.9711 283.6643 16.38879962002153
Source of the keplerian elements: AFSPC